Погода в Дечине

Чехия     50°46′47″N   14°12′57″E
темп.,
°C
ветер,
м/с
пор.,
м/с
влажн.,
%
обл.,
%
осадки,
мм/ч
давл.,
гПа
погр.,
м
17 августа, ср
ср1723:00+20ссз225711 0.0 101113
02:00+19ссз116114 0.0 101111
05:00+17ссв00695 0.0 101211
08:00+21юв11589 0.0 1012105
11:00+28ю223914 0.0 1012913
14:00+30ююз22306 0.0 10112587
17:00+30юз122986 0.0 10112541
20:00+24юв114559 0.0 101011
18 августа, чт
чт1823:00+21вюв115386 0.0 101111
02:00+19вюв116291 0.0 101111
05:00+19юв116763 0.0 101111
08:00+22юв115817 0.0 101195
11:00+29юв233720 0.0 10111131
14:00+32ююв1228100 0.0 10103035
17:00+32ссв1228100 0.0 10082809
20:00+23ссз31063100 0.0 1009374
19 августа, пт
пт1923:00+20ссз378094 0.1 1011313
02:00+17ссз2497100 2.8 1011139
05:00+17ссз249866 1.6 1010140
08:00+18ссз249598 1.7 1011317
11:00+21ссз238487 0.3 1011577
14:00+23ссз4471100 0.5 1010841
17:00+23ссз577992 2.4 1009757
20:00+19зюз2799100 26.9 1009487
20 августа, сб
сб2023:00+18сз3798100 14.1 1011539
02:00+18сз2597100 14.3 1011318
05:00+18сз2697100 0.3 1011434
08:00+17ссз2897100 1.2 1013625
11:00+17сз41095100 1.7 1014751
14:00+19ссз3885100 2.7 1015956
17:00+21сз3775100 0.6 1016910
20:00+18сз1182100 0.6 101611
21 августа, вс
вс2123:00+17зюз1185100 0.0 101711
02:00+15з11890 0.0 101711
05:00+14зюз00870 0.0 101711
08:00+18ю11734 0.0 101788
11:00+24зюз114923 0.0 10171154
14:00+24сз224742 0.0 1016944
17:00+22зсз235561 0.0 1016486
20:00+19ссз226494 0.0 101613